Regional Weather Roundup
Issued by NWS

Home | Current Version | Previous Version | Graphics & Text | Print | Product List | Glossary On
Versions: 1 2 3 4 5 6 7 8 9 10 11 12 13 14 15 16 17 18 19 20 21 22 23 24 25 26 27 28 29 30 31 32 33 34 35 36 37 38 39 40 41 42 43 44 45 46 47 48 49 50
000
ASUS43 KMPX 210510
RWRMN
WEATHER ROUNDUP FOR MINNESOTA
NATIONAL WEATHER SERVICE TWIN CITIES/CHANHASSEN MN
1200 AM CDT SUN SEP 21 2014


NOTE: "FAIR" INDICATES FEW OR NO CLOUDS BELOW 12,000 FEET WITH NO
SIGNIFICANT WEATHER AND/OR OBSTRUCTIONS TO VISIBILITY. N/A MEANS
CURRENT SKY AND/OR WEATHER CONDITIONS ARE NOT AVAILABLE.

MNZ060>063-068>070-210600-
   Twin Cities Metro

CITY           SKY/WX    TMP DP  RH WIND       PRES   REMARKS
TWIN CITIES    PTCLDY    58  51  78 W12       29.85S
ST PAUL        CLEAR     58  51  78 W12       29.84F
CRYSTAL        CLEAR     58  50  75 W12       29.83F
BLAINE         CLEAR     57  54  88 W14G20    29.83F
LAKEVILLE      MOCLDY    55  52  88 W14       29.86S
EDEN PRAIRIE   PTCLDY    58  52  80 W12G18    29.86R
SOUTH ST PAUL  CLEAR     58  52  79 W10       29.84F
LAKE ELMO      FAIR      57  52  82 W13       29.83F
$$
MNZ001>005-007-008-013>017-022>024-027-028-210600-
   Northwest Minnesota

CITY           SKY/WX    TMP DP  RH WIND       PRES   REMARKS
BEMIDJI        MOCLDY    48  47  97 NW8       29.91R
HALLOCK        CLOUDY    54  52  94 NW6       29.96R
ROSEAU         CLOUDY    52  46  82 W3        29.93R
WARROAD        CLOUDY    50  46  87 W3        29.93R
THIEF RVR FALL CLOUDY    52  48  87 N10       29.95R
CROOKSTON      MOCLDY    54  52  94 N7        29.97R
FOSSTON        MOCLDY    48  46  93 NW5       29.95R
DETROIT LAKES  PTCLDY    52  50  93 NW12      29.95R
MOORHEAD       CLEAR     54  54 100 N7        29.97R
PARK RAPIDS    CLOUDY    51  48  89 NW9       29.91R
MAHNOMEN       MOCLDY    51  50  95 NW7       29.94R
$$
MNZ006-009>011-018-025>026-210600-
   North Central Minnesota

CITY           SKY/WX    TMP DP  RH WIND       PRES   REMARKS
BAUDETTE       LGT RAIN  50  48  93 NW9       29.90R
FLAG ISLAND    LGT RAIN  52  48  87 N9        29.90R
INTL FALLS     LGT RAIN  51  49  92 NW13      29.85R
WASKISH        LGT RAIN  50  48  93 N8        29.90R
BIG FORK       RAIN      50  48  93 NW5       29.86R
LONGVILLE      CLOUDY    52  48  87 NW6       29.87R
GRAND RAPIDS   CLOUDY    50  46  87 NW12G22   29.84R
CRANE LAKE     CLOUDY    52  52 100 N6        29.82R
ORR            LGT RAIN  52  48  87 NW7G16    29.79R
COOK           DRIZZLE   52  52 100 NW6       29.80R
WALKER         MOCLDY    48  47  95 NW5       29.90R
$$
MNZ012-019>021-037-210600-
   Northeast Minnesota

CITY           SKY/WX    TMP DP  RH WIND       PRES   REMARKS
DULUTH         LGT RAIN  54  50  86 NW14      29.74R
ELY            HVY RAIN  54  52  94 N6        29.76R
HIBBING        LGT RAIN  52  48  86 NW17G25   29.79R
EVELETH        LGT RAIN  52  50  93 NW10      29.78R
DULUTH HARBOR  RAIN      55  54  94 NW10G18   29.73R
TWO HARBORS    LGT RAIN  54  48  82 E3        29.71R
SILVER BAY     CLOUDY    52  52 100 NW3       29.71R
GRAND MARAIS     N/A     53  52  96 NE8       29.74R
G MARAIS ARPRT RAIN      52  48  87 NE7       29.75R
$$
MNZ029>031-032-039>041-046>048-054>057-064-210600-
   West Central Minnesota

CITY           SKY/WX    TMP DP  RH WIND       PRES   REMARKS
FERGUS FALLS   CLEAR     50  46  87 W7        29.96R
WHEATON        CLEAR     55  45  67 NW10      29.99R
MORRIS         CLEAR     52  48  87 NW6       29.94R
ALEXANDRIA     MOCLDY    54  50  86 NW8       29.93R
ELBOW LAKE     MOCLDY    53  50  87 NW8       29.95R
WADENA         PTCLDY    52  48  87 NW7       29.90S
GLENWOOD       PTCLDY    54  50  87 W9        29.93S
APPLETON       CLEAR     55  46  71 NW9       29.94R
BENSON         CLEAR     52  48  87 N7        29.94R
ORTONVILLE     CLEAR     59  45  58 NW10G16   29.97R
MADISON        CLEAR     57  48  72 W8        29.96R
WILLMAR        FAIR      54  50  87 NW7       29.94R
$$
MNZ033>034-036-042>043-049>051-058-059-210600-
   Central Minnesota

CITY           SKY/WX    TMP DP  RH WIND       PRES   REMARKS
ST CLOUD       CLEAR     58  49  72 W13       29.87R
SAUK CENTRE    FAIR      52  49  91 W6        29.91S
PAYNESVILLE    MOCLDY    51  49  91 W9        29.91S
AITKIN         PTCLDY    52  46  82 NW7G16    29.84R
PINE RIVER     CLEAR     50  46  87 NW5       29.92R
BRAINERD       PTCLDY    51  46  83 NW10      29.88R
STAPLES        CLEAR     52  45  76 NW8       29.90R
LONG PRAIRIE   FAIR      52  50  93 W9        29.90S
LITTLE FALLS   PTCLDY    54  46  76 NW5       29.88R
LITCHFIELD     CLEAR     57  54  88 NW9       29.91S
BUFFALO        PTCLDY    57  49  75 W13       29.88S
MAPLE LAKE     MOCLDY    57  52  83 W9        29.89R
$$
MNZ037-044-045-052-053-210600-
   East Central Minnesota

CITY           SKY/WX    TMP DP  RH WIND       PRES   REMARKS
PRINCETON      CLEAR     55  50  82 W9        29.85R
MORA           PTCLDY    54  45  71 NW17      29.84R
CAMBRIDGE      CLEAR     57  46  67 NW15G21   29.81S
RUSH CITY      MOCLDY    55  47  76 NW15G26   29.81R
MOOSE LAKE     LGT RAIN  50  46  87 NW12G21   29.77R
HINCKLEY       DRIZZLE   52  46  82 NW12G18   29.79S
CLOQUET        RAIN      52  48  87 NW16G24   29.76R
MCGREGOR       CLOUDY    50  46  87 NW14G22   29.83R
$$
MNZ071>073-080-081-089-090-097-098-210600-
   Southwest Minnesota

CITY           SKY/WX    TMP DP  RH WIND       PRES   REMARKS
MONTEVIDEO     CLEAR     57  48  72 NW9       29.94S
GRANITE FALLS  CLEAR     52  49  89 W8        29.95S
CANBY          CLEAR     60  45  58 W15       29.99R
MARSHALL       CLEAR     57  43  58 W13       29.96S
REDWOOD FALLS  CLEAR     58  49  72 W15       29.92S
OLIVIA         CLEAR     54  50  87 W9        29.92R
PIPESTONE      CLEAR     55  45  67 NW9       30.02S
WINDOM         CLEAR     54  48  82 W8        29.97S
WORTHINGTON    CLEAR     55  45  67 W10       30.01S
JACKSON        CLEAR     59  46  63 W10       29.98S
TRACY          CLEAR     58  47  67 W6        29.98S
SLAYTON        CLEAR     57  45  64 W9        30.01S
$$
MNZ065>067-074>077-082>085-091>093-210600-
   South Central Minnesota

CITY           SKY/WX    TMP DP  RH WIND       PRES   REMARKS
MANKATO        MOCLDY    55  50  82 W13       29.90F
NEW ULM        CLEAR     55  54  94 W13       29.92S
ST JAMES       CLEAR     59  52  77 W10       29.95S
FAIRMONT       CLEAR     57  48  72 W12       29.95S
GLENCOE        MOCLDY    58  51  79 W8        29.89S
FARIBAULT      CLOUDY    61  52  72 W10       29.89S
OWATONNA       MOCLDY    55  54  94 W6        29.90S
WASECA         MOCLDY    54  50  87 SW6       29.92F
ALBERT LEA     CLEAR     55  55 100 W7        29.91S
$$
MNZ078>079-086>088-094>096-210600-
   Southeast Minnesota

CITY           SKY/WX    TMP DP  RH WIND       PRES   REMARKS
ROCHESTER      CLEAR     54  51  90 W7        29.88F
RED WING       CLEAR     57  54  88 W14       29.82S
STANTON        CLOUDY    58  52  80 W9        29.86S
DODGE CENTER   PTCLDY    55  52  88 W10       29.88F
WINONA         CLEAR     59  52  77 NW7       29.83F
AUSTIN         CLEAR     55  54  94 W7        29.90S
PRESTON        CLEAR     54  54 100 NW9       29.87F
$$
ABBREVIATIONS USED IN REMARKS
   TC - TEMPERATURES IN CELSIUS
  WCI - WIND CHILL INDEX
   HX - HEAT INDEX
  VSB - VISIBILITY
$$



USA.gov is the U.S. government's official web portal to all federal, state and local government web resources and services.